Regional Weather Roundup
Issued by NWS

Home | Current Version | Previous Version | Text Only | Print | Product List | Glossary Off
Versions: 1 2 3 4 5 6 7 8 9 10 11 12 13 14 15 16 17 18 19 20 21 22 23 24 25 26 27 28

000
ASUS45 KPSR 300710
RWRAZ

ARIZONA HOURLY REGIONAL WEATHER ROUNDUP
NATIONAL WEATHER SERVICE PHOENIX AZ
1200 AM MST MON MAY 30 2016

NOTE: FAIR INDICATES FEW OR NO CLOUDS BELOW 12,000 FEET WITH NO
SIGNIFICANT WEATHER AND/OR OBSTRUCTIONS TO VISIBILITY.

AZZ001>003-036-300800-
NORTHWEST ARIZONA

CITY           SKY/WX    TMP DP  RH WIND       PRES   REMARKS
KINGMAN        CLEAR     60  21  22 SE6       29.99S
$$

AZZ004>008-015-016-018-300800-
NORTH CENTRAL ARIZONA

CITY           SKY/WX    TMP DP  RH WIND       PRES   REMARKS
GRAND CANYON   PTCLDY    41  16  36 CALM      30.18S
WILLIAMS       CLEAR     45  16  31 S8        30.24F
PRESCOTT       CLEAR     54  21  27 S8        30.08F
FLAGSTAFF      CLEAR     39  18  42 CALM      30.19F
PAYSON         CLEAR     59  18  20 CALM      30.10S
PAGE           MOCLDY    74  22  14 W6        29.97R
$$

AZZ009>014-017-300800-
NORTHEAST ARIZONA

CITY           SKY/WX    TMP DP  RH WIND       PRES   REMARKS
WINSLOW        CLEAR     59  17  19 SW8       30.06S
SAINT JOHNS    CLEAR     59  15  18 CALM      30.12R
WINDOW ROCK    CLEAR     54  13  19 S5        30.17S
SHOW LOW       CLEAR     46  14  27 CALM      30.17S
$$

AZZ023-300800-
GREATER PHOENIX AREA

CITY           SKY/WX    TMP DP  RH WIND       PRES   REMARKS
PHOENIX        CLEAR     83  21  10 W8        29.85R
BUCKEYE        CLEAR     75  12   9 S5        29.87S
LUKE AFB       CLEAR     80  21  11 S9        29.84S
DEER VALLEY    CLEAR     76  22  13 E3        29.87S
SCOTTSDALE     CLEAR     80  23  12 CALM      29.89S
MESA-GATEWAY   CLEAR     79  25  13 CALM      29.89R
$$

AZZ027-028-300800-
SOUTHWEST MARICOPA COUNTY AND PINAL COUNTY

CITY           SKY/WX    TMP DP  RH WIND       PRES   REMARKS
CASA GRANDE    CLEAR     73  27  17 S6        29.90S
GILA BEND      FAIR      74  10   8 S7        29.85S
$$

AZZ503-504-507>509-300800-
SOUTHEAST ARIZONA

CITY           SKY/WX    TMP DP  RH WIND       PRES   REMARKS
TUCSON         CLEAR     77  33  20 NE3       29.98F
DAVIS-MONTHAN  CLEAR     71  31  22 W2        29.97S
NOGALES        CLEAR     65  32  29 E7        30.05S
SIERRA VISTA   CLEAR     70  39  31 SW9       30.09F
DOUGLAS        CLEAR     65  33  30 SE3       30.06R
SAFFORD        CLEAR     72  13  10 NW9       29.96R
$$

AZZ020-021-025-026-031-300800-
SOUTHWEST ARIZONA

CITY           SKY/WX    TMP DP  RH WIND       PRES   REMARKS
YUMA           CLEAR     72  46  39 S5        29.83S
$$

CAZ031-033-041-043-047-048-061-300800-
SOUTHERN CALIFORNIA

CITY           SKY/WX    TMP DP  RH WIND       PRES   REMARKS
DOWNTOWN L.A.  CLEAR     60  54  80 W3        30.00F
L.A. AIRPORT   PTCLDY    59  54  83 W8        30.01F
SAN DIEGO      CLOUDY    65  56  72 NW7       30.02F
BURBANK        CLEAR     59  51  75 CALM      29.99F
ONTARIO        CLEAR     59  51  75 W9        30.00S
RIVERSIDE      CLEAR     60  52  74 W3        30.00S
PALM SPRINGS   CLEAR     75  51  43 NW9       29.85S
EL CENTRO NAS  CLEAR     75  46  35 W9        29.83S
IMPERIAL       CLEAR     77  46  33 W10       29.80F
BLYTHE         CLEAR     80  43  26 SW9       29.81F
NEEDLES        CLEAR     81  26  13 W7        29.83S
$$

NVZ020-UTZ003-300800-
SOUTHERN NEVADA-UTAH

CITY           SKY/WX    TMP DP  RH WIND       PRES   REMARKS
LAS VEGAS      CLEAR     81  17   9 S8        29.85S
SALT LAKE CITY CLOUDY    61  47  59 N12       30.09S
$$

NMZ009-TXZ055-300800-
NEW MEXICO-WEST TEXAS

CITY           SKY/WX    TMP DP  RH WIND       PRES   REMARKS
ALBUQUERQUE    CLOUDY    64  16  15 SE9       30.08R
EL PASO        PTCLDY    77  37  23 S10       30.03R
$$


........................KEY........................
SKY/WX - SKY CONDITION/WEATHER
TMP    - TEMPERATURE IN FAHRENHEIT
DP     - DEW POINT IN FAHRENHEIT
RH     - RELATIVE HUMIDITY IN PERCENT
WIND   - DIRECTION AND SPEED IN MILES PER HOUR (MPH)
VRB    - VARIABLE WIND DIRECTION
PRES   - MEAN SEA LEVEL PRESSURE IN INCHES OF MERCURY
         F - FALLING PRESSURE   R - RISING PRESSURE
         S - STEADY PRESSURE
VSB    - VISIBILITY IN MILES
HX     - HEAT INDEX IN FAHRENHEIT
WCI    - WIND CHILL INDEX IN FAHRENHEIT
TC     - TEMPERATURE IN CELSIUS WHICH IS ALSO KNOWN AS
         TEMPERATURE IN CENTIGRADE
AFB    - AIR FORCE BASE
         LUKE AFB IS LUKE AIR FORCE BASE
         DAVIS-MONTHAN IS DAVIS-MONTHAN AIR FORCE BASE
NAS    - NAVAL AIR STATION
         EL CENTRO NAS IS EL CENTRO NAVAL AIR STATION
N/A    - NOT AVAILABLE





USA.gov is the U.S. government's official web portal to all federal, state and local government web resources and services.